Theta_e
329 331 333 334 334 333 331 329 327 327 325 323 321 319 320 320 322 324 325 325 324 324 324 324 323 322 323 325 327 328 328 329 329 329 328 328 328 328 327 327 327 328 329 330 330 329 328 327 326 325 323 321 322 320 319 322 322 320 323 324 325 327 327 326 323 319 316 315 314 311 308 306 304 303 302 301 302 304 307 312 314 314 315 314 315
330 332 333 332 333 333 332 330 328 326 323 321 320 320 320 320 322 324 324 324 325 326 326 326 326 325 324 324 327 328 328 328 328 328 328 327 328 327 327 328 327 328 328 329 330 330 329 328 327 327 325 324 324 322 318 321 323 321 323 324 324 325 326 327 324 320 317 315 315 312 309 307 304 303 302 301 303 303 304 309 313 315 314 314 314
332 333 333 332 332 333 333 332 331 327 322 320 321 320 319 320 322 323 324 326 328 328 328 328 328 327 325 326 326 327 328 329 328 328 328 327 328 328 327 328 327 327 327 328 328 330 330 329 328 328 327 326 325 325 320 319 323 322 322 323 323 324 326 327 326 321 318 316 315 313 311 307 305 303 302 302 301 302 304 306 311 314 314 313 314
332 333 333 333 333 333 334 334 332 328 321 319 322 322 320 320 322 324 326 327 328 328 327 327 327 329 328 327 325 325 328 330 329 330 328 327 327 328 328 327 328 327 327 328 327 328 330 330 330 328 328 327 326 326 322 319 321 322 322 323 322 322 325 327 327 323 319 317 315 314 312 309 306 303 302 302 300 300 302 303 308 313 314 314 314
333 332 332 334 334 333 333 333 333 330 324 318 321 324 323 322 324 326 327 326 326 326 326 326 327 329 330 328 326 326 328 329 330 330 329 328 327 328 328 327 328 328 328 327 327 327 328 329 330 330 329 328 327 326 325 323 321 320 321 323 322 321 323 327 328 325 321 318 316 315 314 311 307 303 302 301 300 299 300 302 305 309 312 314 314
332 331 332 333 334 333 333 333 334 333 328 321 318 322 324 325 325 326 326 325 325 325 326 330 331 331 331 331 329 328 328 329 329 330 329 329 328 328 328 328 328 329 329 328 327 326 326 327 329 330 330 329 328 327 327 326 324 322 322 323 322 319 320 326 328 327 324 320 317 316 315 313 309 305 303 302 300 299 300 301 302 304 308 311 312
330 330 330 333 333 333 333 333 334 334 333 327 321 321 322 323 324 324 324 323 326 327 329 332 332 332 332 331 330 329 328 329 329 329 329 329 329 328 328 328 329 329 329 329 329 328 327 326 327 328 330 329 329 328 328 327 326 325 324 323 322 319 318 324 328 327 326 322 318 316 316 315 311 307 303 302 300 299 300 301 302 303 304 306 309
329 329 330 333 333 333 333 333 334 334 334 332 328 324 322 323 324 324 325 326 328 331 332 332 331 331 331 331 331 330 329 328 329 329 329 329 329 329 328 328 328 329 329 330 330 330 328 327 327 326 327 328 328 328 328 328 327 326 326 324 322 321 320 321 325 327 326 325 322 317 316 316 313 310 306 303 301 299 299 301 302 303 304 305 306
330 331 331 332 332 333 331 331 332 332 331 332 330 328 326 328 329 328 328 327 328 330 331 331 331 331 331 331 331 330 329 328 328 328 328 328 329 329 329 329 329 329 329 329 329 330 329 328 328 327 327 327 326 327 328 328 329 327 326 326 323 323 321 318 320 326 327 326 325 322 318 316 315 313 309 304 302 300 299 300 301 302 305 306 306
330 330 331 331 331 332 331 330 330 329 329 330 331 330 330 330 329 328 327 326 326 327 329 330 330 331 331 330 331 330 329 328 327 328 328 328 328 328 329 329 329 329 329 329 329 329 330 329 329 328 327 327 326 326 327 328 329 328 327 327 326 324 324 320 318 322 327 328 327 325 322 319 316 315 312 307 303 301 299 299 299 301 304 307 308
326 328 328 328 328 329 330 329 330 328 327 330 331 331 330 329 327 328 327 327 328 329 331 330 329 331 331 330 330 330 329 328 328 327 327 328 328 329 329 329 330 330 330 329 329 329 329 329 329 329 328 328 328 326 326 326 327 328 328 328 328 326 326 326 323 320 323 327 328 327 325 322 318 315 314 311 306 302 300 299 299 300 303 306 306
323 324 325 325 325 326 327 328 329 328 326 328 329 329 330 330 329 329 328 328 330 330 332 330 328 330 329 328 328 329 329 329 329 328 327 327 327 328 329 330 330 330 330 329 329 329 329 329 329 330 330 329 329 328 327 326 325 326 327 327 328 328 327 327 327 323 320 323 326 327 327 325 320 316 315 314 310 305 302 300 299 299 302 304 304
320 321 322 324 324 325 326 326 327 326 326 327 328 328 329 330 330 330 330 329 329 331 331 329 329 330 329 328 327 327 328 329 329 329 328 328 328 328 328 329 329 329 330 329 329 329 329 329 328 328 329 330 330 329 329 328 327 326 325 326 327 328 329 328 328 327 324 323 324 325 325 326 322 317 315 315 313 308 304 301 300 299 300 302 302
320 321 323 324 324 324 325 326 326 325 327 328 328 329 329 329 329 329 330 330 331 331 331 329 330 331 329 329 329 327 327 327 328 328 329 329 329 329 329 329 329 329 329 329 329 329 329 329 328 326 326 328 329 330 330 329 329 328 326 326 326 326 328 329 328 328 327 326 325 323 323 325 325 321 317 315 314 310 306 303 301 299 299 301 301
320 321 321 322 323 324 324 325 326 326 327 327 328 329 329 329 328 328 328 329 330 331 331 329 330 330 329 331 332 331 330 329 327 327 327 328 328 328 328 329 330 330 329 329 329 329 330 329 328 327 325 325 327 328 329 328 329 329 329 327 326 326 326 327 329 329 329 328 327 326 324 324 326 325 321 317 315 313 308 305 302 299 298 299 299
319 319 319 319 321 322 323 323 324 324 325 325 326 327 328 328 327 327 327 326 327 330 330 329 330 331 330 331 331 331 334 332 329 326 325 328 327 326 327 328 329 330 329 329 329 328 328 329 328 328 327 326 327 327 327 327 328 329 330 329 328 327 326 326 327 328 329 329 328 327 326 325 325 326 325 320 316 315 311 307 304 299 298 298 298
317 318 317 318 319 321 322 322 322 322 323 323 323 323 325 327 327 328 328 328 328 330 330 329 329 330 329 330 330 331 332 331 329 328 326 327 327 327 327 327 328 328 329 328 329 328 327 327 327 327 327 327 327 327 327 326 327 328 328 329 329 329 328 327 326 326 327 328 329 328 328 327 325 325 325 323 318 316 313 310 306 301 298 298 297
316 317 317 318 319 320 321 321 321 321 321 321 321 321 321 323 325 326 328 328 330 330 330 330 329 329 328 329 330 331 330 329 330 331 329 327 327 326 327 328 328 328 328 328 328 328 327 326 326 326 326 326 326 326 326 326 326 327 327 328 328 328 329 329 328 327 326 326 328 329 328 327 327 325 325 326 323 318 315 313 309 302 298 297 297
317 318 318 318 318 319 319 320 320 319 319 320 320 320 319 319 321 322 324 326 328 328 328 328 328 328 328 329 329 329 329 329 330 332 332 329 327 326 326 327 328 326 327 328 328 327 327 327 326 327 327 327 327 326 326 326 326 326 327 327 327 327 328 329 329 329 327 326 326 328 328 328 328 327 326 326 326 323 318 315 311 305 299 297 297
317 317 316 316 317 317 315 314 314 313 313 314 314 315 316 316 317 319 320 322 323 324 325 325 326 326 327 328 329 328 328 328 328 329 330 330 328 327 327 327 327 327 327 328 328 327 326 327 328 327 327 327 328 327 327 327 327 327 327 327 327 328 328 328 329 329 328 327 326 327 328 328 328 328 327 326 327 326 321 317 313 307 300 297 298
316 314 313 314 314 311 308 307 306 305 305 306 306 307 309 310 312 314 316 317 318 320 320 321 322 322 323 324 325 326 326 326 326 326 327 328 328 327 327 327 327 328 327 327 327 327 326 325 325 326 326 327 327 328 328 327 327 327 327 327 328 327 328 328 328 328 329 328 327 326 327 328 328 328 328 327 326 327 324 319 316 311 303 297 297
315 312 310 311 309 306 305 305 303 303 303 303 303 304 305 306 308 310 311 312 313 315 315 317 318 319 320 321 321 322 323 324 324 324 325 326 325 326 326 326 326 327 327 327 326 327 327 325 324 325 326 325 326 327 328 328 328 327 327 327 327 327 327 328 328 328 328 328 327 327 326 327 328 328 328 327 327 327 326 322 319 315 307 299 296
314 311 309 308 306 305 306 306 304 303 302 302 303 303 303 304 305 306 307 308 309 310 310 312 313 315 316 317 319 319 320 320 321 321 322 323 323 323 324 323 324 324 325 326 326 326 327 326 326 327 326 325 326 326 327 327 328 328 327 327 328 327 327 327 328 328 328 328 327 327 327 327 327 328 328 328 327 326 326 323 321 319 312 303 298
313 312 310 307 306 307 307 307 306 304 303 302 302 303 303 303 304 304 305 306 307 308 308 308 310 312 313 314 314 315 316 316 317 318 319 319 320 321 321 321 321 322 323 324 325 325 325 326 326 326 326 326 326 326 325 326 326 326 327 327 327 327 328 328 327 328 328 328 327 327 327 327 327 328 328 328 328 326 326 324 321 320 316 310 304
312 312 310 308 307 308 308 309 308 305 304 303 303 303 303 303 304 304 305 306 306 306 307 306 307 308 309 310 310 311 312 312 313 314 314 315 317 318 319 319 319 320 319 320 322 323 323 324 325 325 326 326 327 325 323 323 324 324 324 325 326 326 327 328 328 328 328 327 328 328 328 327 327 327 328 328 329 327 327 325 322 321 317 312 308
309 309 310 309 309 309 309 309 309 307 305 304 304 303 303 304 305 304 305 306 305 306 306 306 305 305 306 306 307 308 308 308 310 311 311 312 314 315 315 316 317 318 317 316 318 321 321 322 323 324 324 325 326 324 321 322 323 323 324 323 323 325 327 328 328 328 328 328 328 328 327 328 328 327 328 328 328 328 327 326 324 322 318 313 308
306 307 309 310 310 310 311 310 310 309 306 305 305 304 303 304 304 304 305 305 305 306 306 306 305 305 304 304 305 306 306 306 307 308 308 309 311 312 313 314 314 315 316 315 316 318 318 319 320 322 324 324 324 324 322 321 321 323 325 323 323 325 326 327 328 328 328 328 328 328 327 328 328 328 328 327 328 328 328 326 324 323 320 315 310
306 307 308 310 311 312 312 311 311 309 307 305 305 305 304 304 305 305 305 306 306 306 306 306 305 305 304 304 304 305 304 305 306 306 307 307 308 309 311 312 313 313 314 315 315 317 317 317 318 320 322 322 322 324 324 323 323 323 324 323 322 323 323 324 325 327 328 327 327 327 327 327 328 328 328 328 328 328 328 327 325 324 322 318 312
307 308 308 310 312 313 312 312 312 310 307 306 305 305 305 305 305 306 306 306 306 306 306 306 305 305 305 304 304 304 304 304 305 305 306 307 308 308 309 310 311 312 312 313 314 316 317 318 318 318 320 322 323 324 324 324 324 322 322 322 321 320 321 322 324 325 326 326 326 325 326 326 327 328 328 328 328 328 327 327 326 325 324 322 315
308 308 309 310 312 314 313 313 312 310 308 306 306 305 305 305 305 305 306 306 306 305 305 304 304 304 304 304 304 305 304 304 304 305 305 306 306 307 308 308 309 310 311 312 313 314 316 317 318 319 321 322 323 323 323 323 323 321 321 322 322 321 322 322 323 324 324 324 323 323 324 325 326 327 327 328 328 328 327 327 327 326 324 324 319
308 308 309 310 312 313 314 313 312 310 308 306 306 306 305 305 306 305 305 305 305 305 304 304 304 304 304 304 304 304 304 304 304 304 305 305 305 306 307 307 308 309 310 311 311 312 314 316 317 319 319 320 321 321 321 321 322 321 320 322 323 323 323 322 322 323 324 324 323 322 323 323 325 326 327 327 327 328 327 327 327 326 325 325 322
308 308 309 310 311 313 314 313 312 310 308 306 306 306 306 306 306 305 304 304 304 304 304 303 303 303 303 303 303 304 304 304 304 304 304 304 304 305 305 306 307 307 308 309 310 311 312 313 315 315 316 317 318 318 319 319 321 321 321 322 323 323 323 323 323 323 324 325 324 324 324 324 325 326 326 326 327 327 327 327 326 326 326 325 324
309 309 309 310 311 313 314 313 311 309 307 306 306 306 306 305 305 304 303 303 303 303 303 302 302 302 302 302 302 303 303 304 304 304 304 304 304 304 304 305 306 306 307 307 309 310 310 311 312 312 313 314 315 316 317 319 320 320 321 322 322 322 323 324 324 324 324 324 325 325 325 325 325 325 325 326 326 326 326 326 326 325 326 326 325
311 310 309 310 312 313 314 313 310 308 307 306 306 306 306 305 304 303 303 303 303 302 302 302 301 301 301 301 301 301 302 303 304 304 304 304 303 303 304 304 304 305 305 306 307 308 309 309 310 310 311 312 313 315 316 317 318 319 319 319 320 322 322 323 323 324 324 324 325 325 325 325 324 324 325 325 326 326 326 326 325 325 326 326 325
311 311 310 310 312 313 313 311 309 307 306 306 306 306 305 305 304 303 303 303 303 302 302 301 301 301 301 301 301 301 301 302 303 304 304 304 303 303 303 303 303 304 304 304 304 305 306 307 308 308 309 310 311 312 313 313 314 316 316 317 318 320 321 321 321 322 322 323 324 324 325 324 323 324 325 325 325 325 326 326 325 325 325 326 326
312 312 311 311 312 313 312 310 308 307 306 306 306 305 304 304 303 303 302 302 302 302 302 301 301 301 301 301 301 300 301 301 302 302 303 303 303 303 303 303 303 303 303 303 304 304 305 305 306 306 307 307 308 309 310 310 311 312 314 316 316 318 319 320 320 319 319 320 321 322 324 324 323 324 324 325 325 324 325 326 326 325 325 325 326
313 312 312 312 312 312 311 309 307 307 306 306 305 304 303 303 302 302 301 301 301 301 301 300 300 300 300 300 300 300 300 301 301 301 301 301 301 301 302 302 302 303 303 303 303 303 304 305 305 305 305 305 306 307 308 309 310 311 313 315 316 316 318 318 318 318 317 316 319 321 322 322 323 323 324 325 325 325 325 325 326 325 324 325 325
313 312 312 312 312 312 310 308 307 306 306 306 305 304 303 302 301 301 300 300 299 299 298 299 299 299 299 299 300 300 300 300 300 301 300 300 300 300 301 301 301 301 302 302 302 303 303 303 303 303 304 304 305 306 307 309 310 311 312 313 314 314 316 316 317 317 315 314 316 319 320 321 322 323 323 324 324 325 324 324 325 325 324 324 324
313 313 312 312 312 311 309 307 306 306 306 305 305 304 303 302 301 300 299 297 296 295 295 296 296 297 298 298 299 299 299 299 300 300 300 300 300 300 300 300 300 300 301 301 301 301 302 302 302 303 303 304 304 305 306 307 308 309 310 312 313 313 315 316 316 317 316 315 315 316 317 319 322 322 323 323 323 324 325 324 324 324 324 324 324
313 313 312 312 311 309 308 307 307 306 306 305 305 304 303 302 301 299 297 294 293 292 293 294 295 295 296 296 297 297 298 298 298 298 299 299 300 300 300 300 300 300 300 300 300 301 301 302 302 302 303 303 304 304 305 306 307 309 310 311 313 313 314 315 316 316 317 316 316 317 317 318 320 322 323 323 323 323 323 324 324 324 324 324 324
313 312 312 312 310 308 307 307 307 306 306 305 305 303 302 301 300 297 294 292 291 292 293 294 294 294 294 295 295 294 294 294 294 294 295 296 297 298 299 299 299 299 299 299 300 300 300 301 301 302 303 303 304 305 305 305 306 308 309 310 311 312 313 314 314 315 315 316 316 316 317 318 319 319 320 321 322 322 322 322 323 323 324 324 323
311 310 310 310 310 308 308 307 307 306 306 305 304 303 301 300 297 294 292 291 291 292 293 294 294 294 294 294 294 292 291 292 293 293 293 293 294 295 296 297 298 298 299 299 299 299 300 300 301 301 302 302 303 304 304 305 305 305 306 307 309 310 311 312 313 314 315 315 315 316 317 317 317 317 318 318 319 320 320 321 321 322 323 323 323
310 310 310 310 309 308 308 307 306 306 305 304 303 301 300 297 294 292 292 291 291 292 293 293 294 294 294 294 294 293 292 293 293 293 293 293 294 294 294 295 295 296 297 298 298 299 299 299 300 300 301 301 302 303 303 304 304 304 305 305 307 308 309 310 311 313 314 314 315 316 316 316 316 315 316 317 316 317 318 318 319 320 320 322 322
310 310 309 309 309 308 307 307 306 305 305 303 302 300 298 295 293 292 292 292 291 292 293 293 294 294 294 294 294 293 293 292 292 293 294 294 294 294 294 294 294 294 294 295 296 297 298 298 299 299 300 300 301 301 302 302 303 303 303 304 304 305 306 308 309 311 312 313 313 314 315 315 314 314 315 315 315 315 316 317 317 318 317 318 319
310 310 309 309 308 307 307 306 306 305 304 302 301 299 296 294 293 293 292 292 292 292 293 293 293 293 293 293 293 294 293 292 293 294 294 294 294 294 294 294 294 294 294 294 294 295 295 297 297 298 299 299 299 300 300 301 301 302 302 302 303 304 305 306 307 308 310 310 311 312 313 314 313 313 314 314 313 314 315 315 316 316 316 315 316
310 310 309 308 308 307 307 306 305 304 303 302 300 297 294 293 294 293 292 292 291 292 292 292 292 293 293 293 293 293 293 293 293 293 293 293 293 293 294 294 294 295 295 295 295 294 294 295 296 297 297 298 298 298 299 299 299 300 301 302 302 303 303 304 305 306 307 308 308 309 311 312 313 313 313 313 312 313 314 314 314 315 315 315 314
310 309 308 308 308 307 306 305 305 303 302 301 299 295 294 294 294 293 292 292 291 292 292 292 292 292 292 292 293 293 293 293 293 292 292 292 293 293 293 293 294 294 295 295 295 295 295 295 296 296 296 297 297 297 297 298 298 299 300 300 301 301 301 302 303 304 304 305 306 307 309 310 311 312 312 312 311 312 313 313 313 313 314 314 314
309 309 308 308 307 306 306 305 304 302 302 300 297 295 294 295 294 293 293 292 292 292 292 292 292 293 293 292 292 293 293 293 293 292 291 291 292 292 293 293 293 293 294 294 294 294 295 295 295 295 296 296 296 296 296 296 297 298 298 298 299 299 300 300 301 302 303 304 305 306 307 308 309 310 311 310 309 310 310 311 312 312 312 312 312
308 308 308 308 307 306 305 304 303 303 301 298 296 295 295 295 294 293 293 293 293 293 292 292 293 293 293 292 292 292 292 293 292 292 291 291 291 292 292 292 293 293 293 293 293 293 293 293 294 294 294 294 294 294 294 294 295 295 296 296 297 298 299 300 300 302 303 304 305 306 306 307 308 309 310 308 307 307 308 308 309 310 309 309 309
308 308 308 307 306 305 304 304 303 301 299 297 296 296 296 295 294 293 293 293 293 293 293 293 293 293 293 292 291 291 292 292 292 291 291 290 291 291 292 292 292 292 292 292 292 292 293 293 293 293 293 293 293 293 293 293 293 294 294 295 296 297 298 299 300 301 302 302 303 305 306 306 307 308 308 306 305 306 307 307 306 306 306 306 306
308 307 306 305 305 304 304 303 301 298 297 296 296 296 296 295 294 293 293 294 294 293 294 294 294 293 293 292 291 291 291 291 291 290 290 290 290 291 291 291 291 291 291 292 291 292 292 292 292 293 293 293 293 293 293 294 293 294 294 295 295 296 297 298 299 300 301 301 302 303 305 306 306 307 308 307 306 305 304 303 303 302 302 303 304
Wind_Speed
12 12 8 7 8 14 16 14 14 11 10 9 8 8 9 9 10 11 9 6 6 6 6 6 6 7 7 8 8 8 9 10 9 8 7 7 7 6 5 5 4 5 4 4 4 3 3 3 3 2 1 2 2 1 3 3 4 4 5 5 5 5 3 2 1 2 3 4 7 7 7 8 8 9 9 9 9 9 10 9 10 11 12 13 13
15 14 11 10 10 13 15 15 14 12 11 9 7 6 7 8 9 9 8 7 7 7 6 5 4 5 6 7 7 8 8 9 9 8 8 7 8 8 6 5 5 5 4 4 4 4 3 2 2 2 1 1 1 1 2 3 3 3 5 5 4 5 4 2 2 0 2 3 5 6 7 6 7 7 8 8 8 9 9 9 10 10 11 12 12
16 14 13 14 14 14 16 15 14 12 11 9 7 6 6 7 8 8 8 8 8 7 6 4 3 3 5 6 7 9 9 9 9 9 9 9 9 9 8 7 6 5 5 5 4 5 4 2 2 2 1 1 1 1 1 4 3 3 5 5 5 7 5 2 3 2 1 3 4 5 6 6 6 7 7 7 7 8 8 9 9 10 10 11 12
14 12 12 14 13 13 16 16 14 13 12 10 8 7 7 8 8 9 8 8 7 5 4 2 2 3 4 7 9 11 10 10 10 9 10 10 10 10 10 10 8 7 6 6 5 4 4 4 3 2 2 1 1 1 1 3 4 4 5 4 4 7 6 3 3 3 2 2 3 4 5 5 5 6 6 6 6 6 7 7 8 9 9 10 11
12 11 11 11 9 12 15 18 14 13 13 11 10 9 9 9 9 9 8 6 5 5 4 4 4 4 4 7 10 12 12 12 12 11 10 11 11 11 11 11 10 9 7 7 6 6 5 5 5 3 3 3 1 1 0 1 2 3 5 4 3 6 7 5 3 4 3 3 3 4 4 5 5 5 5 5 5 5 6 6 7 8 9 9 10
9 8 9 9 8 9 13 18 16 13 13 12 12 11 11 11 10 9 8 7 7 7 6 5 5 5 5 6 9 12 12 12 13 13 11 11 11 12 12 12 12 11 9 8 8 7 7 6 6 5 5 4 2 2 2 2 2 1 3 5 3 5 9 7 3 5 4 3 4 4 4 4 4 4 4 4 4 4 5 6 6 7 7 8 9
5 6 7 8 5 5 9 15 14 10 11 13 13 13 13 12 11 10 10 9 8 8 8 6 5 5 5 5 6 9 11 12 13 13 12 11 11 12 13 13 13 12 11 10 9 9 9 8 7 6 7 6 4 4 3 3 4 2 2 4 3 4 8 8 5 5 6 4 5 5 5 5 4 4 3 3 3 3 4 5 6 6 6 7 8
2 3 4 5 3 4 7 12 14 12 10 11 12 13 13 12 11 10 10 9 8 7 7 7 7 7 6 5 5 7 10 12 13 13 13 12 11 12 12 13 13 13 12 11 11 11 10 9 9 8 8 8 7 5 5 4 4 4 3 3 3 2 5 7 7 5 6 5 5 5 6 6 5 4 3 3 3 2 3 3 4 5 5 6 7
2 2 1 2 2 2 4 7 13 14 11 11 13 14 13 10 9 8 8 9 10 10 9 9 9 8 7 6 6 7 9 12 14 15 15 14 13 13 13 13 13 12 12 12 12 12 12 11 11 10 10 10 9 8 7 6 5 5 5 5 4 3 3 5 8 7 7 7 6 5 5 7 7 6 4 2 2 2 2 2 3 4 4 4 5
5 4 4 2 1 1 1 2 6 9 10 14 14 13 13 13 11 10 11 12 14 14 13 11 10 9 7 6 6 8 10 12 14 15 16 17 16 15 14 14 14 13 13 13 12 11 12 12 12 12 12 11 11 10 9 8 7 6 6 7 6 5 3 3 6 8 8 9 8 7 6 6 7 8 6 3 2 1 0 1 2 3 4 4 5
6 6 5 5 4 3 3 3 5 4 5 12 15 12 13 15 17 16 15 15 16 15 13 11 10 9 8 7 6 7 9 11 13 15 17 18 18 18 17 17 16 15 14 13 13 12 12 12 12 13 13 13 12 12 11 11 10 9 8 8 8 8 7 5 4 7 10 10 10 10 8 7 7 8 8 5 3 2 1 1 2 3 4 4 4
6 6 6 6 6 5 5 2 5 5 3 5 10 12 12 15 17 19 18 16 17 16 12 10 9 9 9 9 9 7 8 9 10 13 16 18 20 20 21 20 19 18 16 15 14 12 12 12 12 13 14 14 13 13 14 14 13 12 11 10 10 10 10 9 7 6 10 11 11 12 12 9 7 8 9 6 4 4 3 2 2 3 3 4 4
7 7 7 8 8 6 6 4 2 3 2 4 5 6 9 11 11 16 18 17 17 15 10 8 8 7 8 9 10 10 9 9 8 9 12 15 17 20 21 22 21 19 18 17 16 14 13 12 12 12 13 13 13 13 14 15 16 16 14 13 13 12 11 11 11 10 10 11 13 13 13 12 9 8 9 8 6 5 4 3 3 3 3 4 4
9 10 10 11 11 10 8 6 5 4 4 4 4 4 5 7 7 9 13 13 15 13 10 8 5 4 4 4 8 10 10 9 8 8 8 11 13 16 19 21 21 20 20 19 18 17 16 15 14 13 12 13 13 13 14 15 17 18 17 16 15 14 13 12 13 13 12 12 14 15 14 14 12 10 10 10 8 7 6 5 4 4 4 4 4
11 10 11 12 12 12 12 10 7 6 5 5 5 6 5 3 4 5 7 9 11 12 12 10 7 4 2 1 2 3 5 5 5 7 10 11 12 12 14 17 17 17 19 20 20 19 18 17 16 15 14 13 14 15 15 17 18 19 19 18 18 17 16 15 14 14 14 14 15 16 16 14 13 12 12 12 11 9 8 7 6 5 5 5 5
11 10 10 11 11 12 12 12 11 9 8 8 8 7 6 5 4 4 6 8 9 9 9 10 11 7 2 0 1 1 2 1 1 7 10 8 7 8 8 10 12 13 15 17 17 17 17 18 18 18 17 16 16 17 17 18 19 20 20 20 21 20 19 18 17 16 16 15 15 18 19 16 14 14 14 14 14 12 10 9 8 7 7 6 6
10 10 10 10 10 10 11 11 11 11 11 11 11 11 9 7 6 6 6 7 7 6 4 5 8 9 5 1 1 1 2 0 1 4 4 3 4 5 7 7 7 7 8 9 10 12 14 15 16 16 17 17 17 18 19 20 20 21 21 21 21 22 22 21 19 17 17 16 15 16 19 19 16 15 16 16 16 15 13 12 10 9 9 8 7
9 9 10 10 11 11 11 11 11 10 10 10 11 10 10 9 7 5 4 4 5 4 3 2 3 7 8 4 3 3 2 1 2 2 1 4 5 3 3 6 6 4 3 3 4 5 7 9 10 11 13 14 15 17 18 19 20 20 21 21 21 21 22 22 22 20 18 17 16 15 18 20 20 18 18 18 18 17 16 15 13 11 11 10 9
10 10 10 10 11 11 11 11 11 11 10 10 10 10 10 10 9 8 6 5 4 5 5 3 1 2 3 2 3 3 2 2 2 1 2 3 3 4 5 4 6 6 4 2 2 2 3 5 6 8 9 10 11 12 14 15 16 17 17 18 18 19 19 21 22 22 20 18 18 17 17 19 21 21 20 19 20 19 18 18 16 13 12 12 11
10 9 9 9 10 11 12 12 13 12 12 11 11 10 10 9 9 9 9 8 7 6 7 6 4 5 4 2 2 2 1 0 1 2 3 2 3 6 6 6 8 6 3 3 3 3 4 4 5 7 8 8 8 8 9 10 12 13 13 13 14 15 16 18 20 22 22 21 19 19 19 18 20 22 21 20 20 20 19 19 18 16 14 13 13
9 9 10 11 12 14 14 15 14 14 13 13 12 11 10 10 10 10 10 11 10 9 9 8 6 6 5 4 5 5 4 3 4 4 3 3 3 3 5 8 8 5 4 6 7 7 7 8 8 8 9 9 9 8 8 8 9 10 9 8 9 11 13 15 17 19 21 22 22 21 21 20 20 21 22 21 21 22 21 20 19 18 16 15 14
8 10 12 14 14 15 15 16 16 15 15 15 14 14 13 12 11 11 11 12 12 12 12 11 9 8 7 6 5 6 5 4 5 7 5 3 4 4 6 7 7 7 8 9 8 8 8 9 10 9 9 9 9 10 11 11 10 10 9 9 9 10 11 11 12 14 17 21 23 23 23 22 22 22 22 22 22 23 23 21 20 20 18 17 16
9 10 12 13 14 14 15 16 16 16 16 16 16 16 15 14 13 12 12 12 12 12 12 12 11 10 9 8 6 6 5 4 5 7 6 5 5 6 7 8 9 10 9 8 10 10 9 9 8 8 8 8 8 8 9 10 11 10 10 9 8 9 11 10 10 11 13 18 22 23 24 23 24 23 23 23 23 24 24 22 21 21 20 19 18
10 10 10 11 12 12 13 14 15 15 15 15 16 16 16 15 15 14 13 13 12 11 12 12 12 11 11 9 7 6 6 5 6 6 6 6 7 7 8 9 10 11 10 10 12 11 10 9 8 7 7 7 6 7 7 8 10 10 10 10 8 8 10 10 11 11 11 14 19 22 24 24 25 26 25 25 24 23 23 23 23 22 22 20 19
12 11 10 10 10 10 11 12 14 14 14 14 14 14 15 16 16 15 15 14 13 12 13 12 12 11 10 9 8 7 6 6 6 6 6 6 6 7 9 10 9 11 13 13 13 12 11 10 8 7 7 6 6 7 7 8 10 10 11 14 12 9 9 10 11 10 10 11 15 19 22 23 24 26 27 27 25 24 23 24 24 25 24 22 21
13 12 11 10 9 8 9 10 11 12 12 13 13 13 14 15 15 15 15 13 13 13 12 11 11 10 9 8 8 7 6 6 6 6 7 7 6 7 9 10 11 12 13 13 13 12 11 10 9 9 9 8 7 7 8 8 9 10 11 14 14 11 10 10 10 10 10 11 13 16 19 22 23 25 27 27 26 25 25 25 25 26 27 25 24
13 13 12 11 9 8 7 8 9 10 10 10 11 12 12 13 13 14 13 12 11 11 10 10 9 9 9 8 7 6 6 6 5 5 5 6 6 7 8 8 9 10 10 12 13 12 12 12 11 11 10 9 8 8 10 10 9 9 9 10 11 10 10 9 9 10 10 11 12 14 16 20 22 24 26 27 27 26 27 27 27 27 28 28 27
13 13 12 11 10 9 8 7 7 8 8 9 10 10 11 12 12 11 11 10 9 9 8 8 8 7 7 7 5 5 5 4 4 4 4 4 4 5 6 7 7 7 7 9 10 9 10 10 10 9 8 9 9 9 10 10 9 9 10 11 12 13 11 10 9 9 9 10 11 12 13 16 21 23 25 27 28 28 29 30 30 29 28 29 29
13 13 13 12 11 10 9 8 7 7 7 7 8 8 9 10 10 10 9 8 8 8 7 6 6 5 5 5 4 4 4 4 4 3 3 3 3 3 4 6 7 7 7 7 8 8 9 9 10 9 8 8 8 8 9 9 10 12 12 13 15 16 15 14 12 9 8 9 10 11 12 13 16 21 25 27 29 31 32 32 32 31 30 30 31
13 14 13 13 12 11 10 9 7 6 6 6 6 6 7 8 9 9 8 7 7 6 6 5 5 5 4 5 4 3 4 4 4 4 4 4 4 4 4 5 7 8 8 8 9 11 11 11 10 9 9 9 9 10 10 10 12 14 14 14 15 16 17 16 15 14 12 13 14 15 15 15 15 17 22 25 28 31 33 34 35 34 32 31 31
14 15 14 14 13 12 12 10 9 7 5 5 4 4 5 7 8 7 6 6 6 5 5 5 4 4 4 4 3 3 3 3 3 4 4 4 4 5 5 6 8 9 10 10 10 11 12 13 13 11 11 13 14 15 15 13 13 13 13 14 15 15 16 18 18 18 17 17 18 18 18 18 17 18 19 22 26 29 32 35 37 37 35 33 33
16 16 16 15 14 14 13 12 11 9 7 6 4 3 4 6 6 6 5 5 5 5 5 4 4 4 3 3 3 2 2 2 2 3 3 4 4 5 6 7 8 8 10 12 12 13 14 15 16 16 15 16 16 17 17 16 15 14 13 13 14 15 16 17 19 20 19 19 19 19 19 19 19 18 18 21 24 27 30 35 38 39 38 36 35
18 18 17 17 16 16 16 14 12 10 9 7 6 5 5 5 5 5 5 5 5 5 5 5 5 5 4 4 4 3 2 2 2 2 3 3 4 5 5 7 8 8 9 12 14 16 15 13 15 17 15 16 18 17 17 17 16 15 14 13 14 14 14 14 17 19 19 18 18 18 18 18 18 18 17 19 23 26 28 32 38 41 42 39 38
21 19 19 18 18 17 17 16 13 11 10 8 7 7 6 5 5 5 4 4 4 4 4 5 5 6 6 6 6 5 4 3 3 3 3 3 4 4 5 6 8 9 9 12 14 17 17 14 14 16 15 14 16 15 15 15 15 15 16 16 15 14 14 14 14 16 18 19 18 18 17 16 16 16 16 18 21 24 26 29 36 43 44 41 40
23 21 20 19 19 19 18 16 14 12 10 9 8 7 6 6 6 5 4 3 3 3 3 4 4 5 6 6 7 6 6 6 5 5 5 5 5 5 6 7 8 9 10 11 14 17 19 18 15 15 15 14 15 15 15 16 16 17 18 18 18 16 16 16 15 14 16 18 18 18 17 16 15 14 15 18 20 22 24 26 32 40 44 44 44
24 23 22 20 20 20 19 17 14 13 11 10 8 7 6 6 5 4 3 2 2 2 3 4 5 5 5 6 6 7 7 7 7 7 6 6 7 7 7 7 8 9 10 11 13 15 18 20 18 16 16 16 16 16 16 17 17 18 18 18 18 17 16 16 16 16 17 17 18 18 17 16 15 14 14 16 18 20 22 23 27 32 39 45 46
26 25 24 22 22 21 20 17 14 13 11 9 8 6 4 3 2 1 1 1 2 3 4 5 6 6 6 7 7 7 7 8 8 8 8 8 9 9 9 9 9 9 10 11 13 15 17 20 21 18 17 17 17 16 16 16 16 16 16 17 17 17 17 17 18 20 21 20 18 18 17 16 16 15 14 15 16 18 20 22 25 28 32 40 45
28 27 26 25 24 23 20 17 15 13 11 9 7 5 3 1 1 2 3 4 5 6 7 7 7 7 7 8 8 8 8 9 9 10 10 10 11 10 11 11 11 11 11 12 13 15 17 19 20 19 17 16 16 16 15 14 15 16 16 16 17 16 17 18 17 18 22 22 20 18 16 14 14 16 15 15 15 16 18 20 23 26 29 34 40
30 29 28 28 26 24 20 17 15 12 10 8 6 4 3 3 3 4 5 7 8 9 9 8 7 7 8 8 9 9 9 10 11 11 12 12 12 12 12 12 12 12 13 13 14 15 16 17 19 18 17 14 14 15 14 14 15 16 16 16 16 16 15 16 16 15 17 19 20 20 19 16 14 15 16 15 15 14 16 18 20 23 27 30 34
32 31 31 30 27 24 20 17 15 13 11 9 7 6 5 4 4 5 7 7 8 7 7 6 6 6 7 7 8 9 9 11 12 13 14 14 14 14 14 14 14 15 15 15 14 15 16 16 17 17 17 15 14 14 13 13 14 13 13 13 15 16 15 15 16 15 14 15 15 17 18 17 15 14 15 16 16 15 15 16 18 21 24 27 30
33 32 33 32 28 24 20 18 16 14 12 10 8 7 6 5 5 6 7 6 6 4 4 4 5 6 7 7 8 9 11 12 13 14 15 16 17 18 17 16 15 16 17 16 16 16 16 16 16 16 16 16 14 13 12 12 13 12 12 13 15 15 15 15 16 16 16 15 15 15 15 12 11 11 12 13 14 15 16 16 18 20 23 25 28
33 32 30 28 27 25 21 19 17 15 12 10 8 7 6 5 5 5 5 4 3 3 3 4 5 6 8 8 10 13 15 15 14 15 16 17 18 20 20 20 18 17 17 17 17 17 17 17 17 16 16 16 15 14 13 13 14 14 14 15 15 15 15 15 15 14 14 15 15 15 14 11 9 9 8 9 10 12 13 15 17 19 21 23 25
30 29 27 26 26 24 22 21 18 15 13 10 9 7 6 5 5 5 4 4 3 3 3 5 6 7 9 9 11 14 16 15 15 16 17 18 19 20 21 22 22 22 21 20 19 18 18 19 18 17 17 18 16 15 15 14 14 15 14 13 14 15 14 14 13 12 11 11 12 13 13 13 13 11 9 7 7 9 11 12 14 15 17 18 20
29 28 28 28 26 23 22 20 17 15 13 11 10 8 6 5 5 5 5 5 5 4 5 6 7 8 10 11 12 14 16 18 19 17 17 17 18 20 21 22 24 25 26 26 24 22 20 20 20 20 19 19 19 18 17 15 15 16 16 15 14 14 15 15 14 13 11 10 11 14 14 13 13 13 12 9 8 10 12 12 12 12 13 15 16
32 29 30 29 26 24 22 20 17 15 14 12 9 7 6 5 5 5 6 7 7 7 7 8 9 10 11 12 13 14 16 19 19 17 17 18 18 19 20 21 22 23 25 27 28 27 26 24 24 24 22 20 21 21 19 17 17 17 17 17 16 15 16 16 16 16 13 11 11 14 17 15 12 12 13 10 10 13 14 13 12 11 11 13 15
33 32 32 29 27 25 23 19 17 15 14 12 9 8 6 5 5 7 8 9 10 10 10 11 12 12 13 14 15 15 17 18 18 19 20 19 19 19 19 18 19 20 21 23 25 27 28 28 28 28 26 24 24 23 21 20 20 19 18 18 18 18 18 18 18 19 18 16 14 15 18 17 12 11 13 12 12 16 17 15 13 11 10 11 12
35 35 33 30 28 25 21 18 17 16 14 11 9 7 6 5 7 8 10 12 12 12 13 14 15 15 15 16 16 17 18 18 19 22 24 22 21 21 20 20 20 21 21 22 23 24 25 26 27 28 27 26 25 25 23 22 21 21 20 20 20 19 19 20 22 23 24 23 19 17 18 17 13 12 13 12 12 16 18 18 15 11 9 8 9
35 33 31 30 27 23 20 19 18 16 13 10 8 7 6 7 9 10 12 14 14 14 15 17 17 16 15 16 16 17 18 19 21 24 26 25 23 22 22 23 23 22 22 22 22 24 24 26 28 28 28 28 27 27 26 24 24 22 21 22 21 19 21 21 21 22 22 21 19 19 20 19 17 16 14 12 13 15 17 18 16 12 9 8 7
34 33 33 30 26 23 22 21 18 13 10 8 7 7 8 10 11 13 14 15 15 16 18 19 18 17 16 18 19 19 19 20 22 24 26 25 24 24 25 26 25 25 24 22 22 23 23 25 27 29 30 31 31 32 31 31 30 28 27 27 23 22 23 21 18 19 21 19 17 18 20 21 18 17 15 11 12 14 15 16 15 12 9 8 8
34 33 31 27 24 23 21 18 13 9 7 7 7 9 10 11 13 15 16 14 14 16 18 19 18 17 18 21 23 22 22 22 24 26 26 25 24 25 26 26 26 26 24 22 22 22 22 23 25 26 28 30 31 33 34 34 34 32 32 30 24 23 24 22 18 19 21 22 20 18 19 20 18 16 15 10 10 13 15 16 14 11 10 8 7
32 29 25 23 23 22 17 12 9 7 6 7 8 10 11 13 15 17 16 14 14 16 17 17 17 17 18 20 23 25 25 26 26 27 25 24 24 25 26 26 27 27 25 23 23 23 22 23 23 24 25 26 27 29 30 32 34 33 34 33 28 26 27 25 22 19 17 19 21 19 20 21 17 17 17 12 7 8 10 12 11 9 8 8 7
Wind_Direction
240 247 240 241 226 195 195 201 197 199 204 207 218 214 213 211 198 196 203 199 187 185 188 198 217 218 207 199 200 212 210 201 201 204 211 218 222 223 213 201 190 179 177 174 169 162 141 136 156 153 74 89 124 136 136 152 170 160 152 148 140 140 156 210 212 32 13 23 31 35 39 41 45 48 52 59 64 69 77 81 81 82 83 84 83
245 254 259 264 253 217 205 202 201 200 204 207 207 204 202 202 194 192 195 189 176 168 168 176 198 218 221 216 207 210 213 207 206 211 216 219 225 230 226 217 206 194 188 179 172 170 169 147 142 155 140 124 152 164 137 161 178 168 160 155 165 169 158 188 224 34 13 6 23 33 33 35 41 46 48 54 62 64 73 81 83 83 82 83 84
249 261 270 272 266 241 219 210 209 202 205 207 190 176 178 181 182 182 177 172 170 163 161 164 182 222 228 227 220 213 213 214 216 220 222 224 227 232 235 232 223 212 205 197 183 174 182 177 152 156 177 188 165 201 197 168 177 190 172 170 194 186 165 177 231 255 347 353 11 26 24 25 32 42 47 51 59 63 71 82 88 87 84 84 85
256 268 279 274 266 252 229 218 219 209 207 206 183 161 157 162 166 172 174 176 181 183 189 207 225 241 232 229 228 220 217 220 224 228 229 229 229 231 235 238 236 229 221 216 209 191 187 185 189 188 198 244 207 203 250 158 177 204 187 188 204 191 177 172 230 261 281 329 349 10 14 17 22 33 42 46 55 62 71 83 91 94 91 89 89
270 281 292 281 266 258 230 213 219 216 210 208 192 171 161 165 166 173 185 198 216 232 249 266 265 259 237 230 230 228 225 226 229 231 233 235 235 234 235 240 242 241 237 230 225 218 209 196 199 210 218 246 241 183 214 170 204 204 193 205 211 200 191 173 214 257 273 306 322 350 359 4 12 23 32 35 46 58 70 83 96 103 102 98 96
279 285 297 288 265 262 230 211 219 223 214 210 203 191 179 176 178 191 206 220 241 258 267 274 276 268 252 235 229 233 233 231 231 232 236 240 239 238 238 240 242 243 246 246 240 232 229 220 209 210 225 240 224 208 212 227 269 266 203 212 218 216 203 182 196 253 266 285 301 325 339 345 356 11 25 27 34 51 67 82 95 105 111 109 102
288 281 293 291 265 259 237 217 219 227 223 216 209 203 198 197 198 209 223 234 245 260 268 273 282 284 277 261 237 237 238 234 233 234 238 243 242 240 240 242 243 245 248 248 250 247 241 236 230 219 223 231 221 221 224 234 258 257 218 221 233 222 203 191 187 238 259 265 283 301 316 328 336 351 16 20 21 43 60 77 88 95 105 111 109
315 298 295 296 274 242 246 233 220 216 217 213 212 208 204 208 212 219 232 245 257 269 278 283 291 298 291 281 261 249 245 241 240 242 244 247 249 246 244 246 247 249 252 250 250 254 254 247 244 237 234 241 241 234 229 233 242 236 228 233 245 225 206 206 196 216 251 253 261 279 296 312 320 329 354 9 11 35 58 80 89 90 94 103 112
35 25 7 323 311 275 274 250 226 222 216 204 211 214 208 210 216 227 244 259 271 277 287 297 300 301 292 288 284 268 258 253 250 252 254 253 255 255 253 255 255 255 256 256 255 255 258 256 251 248 248 251 253 249 240 235 237 237 233 226 235 237 217 218 208 210 235 245 248 257 279 297 307 312 319 336 347 11 57 98 104 104 104 97 102
66 68 70 65 31 349 21 185 214 233 229 211 216 223 216 218 226 236 247 256 264 271 280 289 295 299 294 286 287 278 268 263 258 257 258 258 258 260 261 262 263 264 262 261 261 259 260 261 258 254 252 254 255 255 250 242 235 235 234 229 234 242 235 219 216 214 225 238 240 242 265 285 293 299 299 301 310 322 7 134 130 126 127 117 113
72 74 76 81 79 79 92 151 185 175 199 209 218 230 228 231 234 234 240 250 258 266 275 279 281 287 290 281 280 287 280 272 265 259 259 262 263 264 266 267 266 266 266 266 265 264 263 261 261 257 254 256 257 256 256 251 243 236 233 232 232 237 238 235 233 223 224 235 236 234 253 272 277 283 288 291 289 280 269 200 165 148 142 139 137
69 67 70 74 79 87 87 115 184 154 119 184 210 226 233 239 239 229 231 244 253 259 267 276 283 284 287 280 269 282 297 288 278 266 261 263 266 268 269 269 268 267 265 266 265 265 264 262 262 259 255 257 261 259 258 257 253 246 237 233 232 235 237 234 237 235 228 235 238 236 245 259 264 268 276 283 279 267 257 229 194 172 159 156 151
72 71 76 78 83 92 96 99 140 158 147 153 171 201 221 235 235 223 226 240 250 253 253 264 283 284 287 288 278 281 296 302 305 294 278 273 272 273 272 270 268 268 266 265 264 262 261 260 260 260 256 256 258 260 260 260 258 254 246 239 236 235 236 235 235 238 235 234 239 243 247 253 255 255 263 272 270 259 249 241 216 197 179 169 160
80 82 88 89 89 94 98 105 111 125 143 139 129 144 196 226 222 212 220 231 243 242 232 239 259 263 271 301 298 289 286 291 307 317 309 296 287 283 281 275 270 268 268 266 265 262 260 258 256 256 257 255 254 255 258 261 259 258 254 247 242 237 234 236 236 238 238 235 237 244 248 249 251 251 255 260 261 253 245 242 226 211 197 180 172
83 84 88 89 92 95 96 101 107 116 121 107 111 126 138 186 200 209 218 220 228 226 223 227 227 222 226 253 305 299 280 282 301 312 310 300 295 299 290 278 272 267 266 266 266 263 261 259 256 253 252 254 254 254 255 260 262 263 261 255 250 245 239 236 238 240 240 236 235 241 244 244 248 250 251 252 249 245 242 241 232 219 208 191 179
82 81 82 86 90 94 96 98 100 102 106 97 92 100 113 139 165 187 207 211 214 218 222 222 215 209 209 237 141 147 255 250 283 293 299 298 305 330 322 290 273 263 264 268 269 269 266 263 261 257 255 255 257 258 259 261 264 266 265 261 256 252 248 243 241 241 242 240 236 238 240 240 243 247 247 248 244 239 238 239 233 224 213 198 187
82 79 80 87 93 98 101 101 101 98 97 93 84 81 90 113 136 155 177 190 194 197 198 200 208 208 200 178 139 185 231 173 264 268 282 312 310 341 8 350 310 274 265 267 268 274 276 272 269 265 261 260 260 262 264 265 266 267 268 266 262 257 254 251 247 245 246 247 242 238 239 238 238 245 246 244 243 240 238 238 232 224 215 204 193
86 84 85 88 92 100 106 105 102 98 95 92 88 80 77 83 94 110 127 147 162 162 147 143 200 208 204 215 246 253 238 210 248 243 285 314 290 273 354 3 349 327 295 275 269 276 281 277 274 272 269 266 265 265 266 268 268 268 269 269 268 264 259 256 253 250 248 248 246 242 242 240 237 240 244 242 241 239 236 236 233 224 216 208 198
92 89 87 89 92 94 100 104 100 97 96 93 89 83 76 73 74 81 87 90 107 110 95 88 113 160 185 222 257 268 253 232 258 299 321 329 322 303 306 323 332 326 314 305 301 291 287 276 275 281 281 277 272 268 265 266 267 267 267 266 267 266 262 259 255 252 249 247 247 245 243 242 237 236 239 239 240 239 233 232 232 226 218 210 203
92 88 86 91 95 95 97 99 97 92 91 90 88 86 82 77 73 77 79 72 70 78 74 67 69 68 64 66 41 357 316 306 352 330 300 308 331 320 312 317 320 314 307 315 309 304 303 287 277 281 288 291 286 279 271 266 268 269 268 267 265 265 264 262 259 255 250 246 245 246 244 242 238 234 236 238 239 240 234 227 227 227 222 214 207
93 89 93 100 100 99 95 91 87 85 86 87 87 87 86 83 78 75 77 74 71 75 73 64 59 53 46 45 32 17 17 33 35 19 338 304 310 314 317 323 321 309 303 312 307 299 297 292 289 281 279 286 284 279 279 278 280 282 284 284 276 270 269 267 265 261 255 249 244 244 245 243 237 232 235 238 237 237 235 227 223 224 223 219 211
103 95 100 106 105 99 91 84 80 81 83 85 84 83 82 82 82 80 79 77 74 76 77 70 63 55 45 37 22 9 7 15 16 9 352 316 304 298 304 311 308 302 301 304 301 294 286 284 288 283 274 279 279 272 270 273 280 288 296 299 290 278 274 273 274 269 259 251 246 242 243 245 240 234 234 236 235 235 234 227 218 217 220 221 215
123 112 110 113 109 99 90 84 81 81 83 83 82 80 79 79 80 79 77 75 73 73 74 71 66 61 56 50 39 27 19 9 0 354 339 322 315 302 299 298 293 292 291 293 297 294 281 273 275 276 276 279 276 273 273 270 272 279 280 286 293 283 273 269 275 278 260 247 244 240 239 242 243 240 235 231 229 231 230 224 213 208 213 219 217
141 132 127 125 117 104 95 88 85 85 85 85 83 80 78 77 76 74 72 70 68 68 65 63 62 58 55 55 51 47 37 21 4 353 341 326 314 299 297 300 293 288 288 292 293 286 277 275 274 273 278 281 274 280 290 279 274 278 267 264 284 289 276 265 264 273 265 248 242 239 237 237 240 243 240 231 226 225 222 217 210 205 206 212 215
160 151 144 140 129 113 103 94 90 89 89 88 84 79 76 77 77 77 76 73 71 72 67 63 61 57 53 50 46 42 34 19 5 357 352 338 321 303 298 300 294 289 290 289 286 281 277 273 273 274 276 281 280 288 303 293 284 288 272 261 269 278 276 268 260 261 260 250 242 238 237 236 237 243 243 235 226 223 219 215 212 209 207 209 213
169 162 155 152 145 130 113 99 93 91 89 89 85 78 76 79 81 81 82 81 79 79 76 69 63 56 49 44 38 34 24 13 3 356 352 346 335 324 312 303 295 291 289 285 281 280 278 274 273 277 279 280 282 293 308 309 301 301 291 271 266 268 274 273 263 257 251 246 243 239 237 237 237 240 243 239 228 221 220 219 218 214 213 212 214
174 167 164 163 161 151 131 111 101 96 90 89 86 79 75 79 82 81 81 82 81 81 79 71 63 53 45 39 35 29 18 8 1 351 347 342 329 321 317 308 300 296 293 288 282 276 275 278 276 275 279 282 283 288 296 298 296 300 303 290 282 285 290 285 271 262 255 252 251 248 241 237 236 236 239 242 236 227 224 223 223 220 217 216 215
181 174 171 172 173 167 151 131 118 108 100 95 91 86 79 81 86 85 82 81 81 81 77 70 64 56 46 39 36 30 17 6 357 342 332 326 315 308 305 300 299 299 295 292 287 281 280 282 281 278 281 290 290 288 290 288 285 295 306 305 307 309 310 309 294 271 260 261 259 257 254 246 239 235 235 237 237 235 230 227 226 224 222 220 216
191 183 178 179 181 177 165 150 137 122 112 103 96 91 82 82 88 91 89 88 86 81 74 68 62 56 47 38 34 27 15 6 357 345 330 318 308 298 291 290 292 292 295 297 290 290 294 290 288 289 291 299 301 297 298 291 287 300 307 303 303 304 305 309 305 287 269 271 273 272 273 265 250 239 235 235 235 235 234 230 227 225 225 224 220
200 191 185 185 186 185 178 167 156 143 128 114 101 93 83 80 85 87 88 91 91 84 75 68 57 50 42 31 26 17 7 2 353 344 335 326 313 300 288 281 280 279 284 292 289 290 297 296 292 292 297 302 302 299 298 294 294 299 299 296 295 294 293 295 297 295 288 283 286 286 285 282 270 250 239 237 237 237 235 231 228 226 226 227 223
206 199 193 192 193 191 187 180 172 165 153 136 115 99 85 81 84 84 81 84 88 86 77 69 57 46 34 26 21 10 356 349 346 343 336 327 313 301 290 278 272 271 275 280 281 284 292 296 296 298 300 299 296 294 294 293 296 296 293 292 291 287 285 283 283 288 289 287 286 286 285 283 280 268 251 241 240 239 236 231 229 228 227 227 225
213 206 200 199 201 199 193 187 183 178 171 161 146 121 96 87 87 85 79 74 77 74 65 59 53 42 29 18 8 356 345 328 325 327 322 316 309 298 288 278 270 268 272 272 273 279 285 289 293 296 299 299 296 293 290 287 289 293 292 289 286 285 286 282 279 279 281 284 284 283 282 280 279 277 265 252 247 245 240 232 230 231 228 227 226
219 213 206 204 207 204 196 190 188 182 173 167 156 139 121 103 91 84 79 70 64 58 47 40 34 23 14 4 356 348 334 312 299 301 294 293 296 292 285 281 274 269 271 272 275 282 285 286 291 295 298 298 295 291 290 288 286 287 287 286 288 290 291 288 284 278 276 279 283 285 284 281 278 276 270 257 248 248 246 236 230 230 229 227 227
224 218 212 210 209 204 196 190 187 180 173 167 157 142 130 116 102 94 89 75 56 43 34 27 17 9 2 355 349 345 334 317 303 297 294 288 284 284 283 281 277 272 270 274 278 284 289 292 295 299 302 301 295 291 292 292 291 289 285 283 285 288 291 294 292 286 279 278 283 286 286 286 282 278 271 260 248 245 246 240 232 229 228 228 228
225 221 216 213 210 202 194 189 184 178 173 166 155 143 131 120 112 105 97 81 59 36 20 10 360 354 351 343 338 337 332 324 314 305 301 298 292 287 282 276 276 274 271 271 274 280 288 294 297 299 303 304 299 294 293 290 290 290 287 283 281 279 284 288 292 294 290 286 286 285 286 287 285 280 272 265 258 250 245 243 238 231 229 230 229
224 221 217 213 208 199 192 188 183 179 173 164 155 148 138 126 118 110 98 80 49 16 354 344 337 332 329 324 322 321 319 314 309 304 299 298 298 293 286 279 274 274 272 270 270 275 283 289 293 295 298 300 297 296 297 293 288 284 282 281 280 277 276 279 284 289 291 294 294 288 285 284 284 281 272 264 262 257 249 245 240 234 231 232 230
222 219 215 209 203 196 191 188 183 177 171 164 161 160 155 145 131 105 56 7 348 339 329 323 319 315 310 306 304 305 305 301 298 295 291 292 292 288 285 283 278 276 275 272 271 274 278 283 288 290 292 293 293 293 295 295 292 286 281 278 277 277 276 277 280 282 284 292 298 294 289 282 279 279 276 267 262 259 254 248 242 236 233 233 232
220 216 211 205 199 194 191 187 183 178 173 173 178 181 187 214 302 327 328 330 326 322 319 315 311 307 302 300 299 298 295 291 288 287 285 284 284 281 278 278 277 276 274 272 271 272 273 278 283 286 286 286 288 291 291 292 293 290 286 283 279 276 276 276 277 278 281 286 292 296 297 288 276 274 275 273 266 260 257 253 246 239 234 234 235
218 211 206 200 195 191 188 183 182 184 186 193 204 217 240 271 300 314 319 323 322 320 320 316 311 308 304 300 299 296 293 291 289 288 288 285 281 277 274 274 275 275 274 272 269 268 269 272 277 281 283 282 282 286 288 291 290 286 282 282 281 280 277 277 278 278 281 284 287 292 297 293 283 274 271 271 270 265 260 255 250 243 237 236 237
215 208 201 194 189 186 186 185 188 194 201 209 220 235 253 274 291 305 316 321 323 326 328 328 328 324 318 312 307 302 297 292 289 286 285 284 282 279 276 274 274 275 276 275 272 269 267 268 270 273 278 280 278 279 283 288 288 283 280 283 286 286 285 283 281 279 280 284 287 292 295 294 288 281 272 268 267 266 262 257 251 245 240 238 237
211 202 194 188 184 183 184 188 194 200 205 214 226 239 251 268 286 302 313 318 326 337 343 347 351 347 340 330 325 324 319 310 304 295 285 278 276 275 275 275 273 273 274 273 272 272 270 269 269 269 271 273 273 274 275 278 282 286 292 293 289 287 288 287 283 278 276 278 281 284 285 284 284 283 276 269 264 262 258 254 249 245 241 239 237
199 190 183 182 184 185 188 191 196 199 203 213 228 240 250 266 285 299 305 310 323 344 353 345 340 341 340 331 328 333 333 329 321 310 299 289 279 274 272 271 271 271 271 271 268 267 268 269 269 269 269 268 268 270 270 273 277 282 287 289 286 286 288 288 283 278 276 276 277 276 273 269 275 278 270 265 264 263 261 256 251 246 242 240 238
188 182 181 188 190 191 192 193 194 196 200 210 223 233 246 264 281 292 292 292 300 311 329 329 322 325 329 324 323 328 330 328 322 313 305 298 290 282 276 272 270 268 266 267 267 265 266 267 266 266 266 267 267 268 270 272 275 276 279 283 285 287 286 285 284 282 281 282 281 277 274 274 278 277 269 265 266 270 275 271 261 252 244 240 238
186 182 186 190 190 190 191 191 192 197 203 207 211 220 236 254 276 290 286 283 285 288 302 312 313 317 320 319 320 319 321 326 326 318 307 300 294 288 283 278 274 269 265 263 263 264 264 266 266 264 263 265 268 267 267 270 272 274 276 276 277 279 279 278 279 279 284 296 294 284 278 275 276 278 277 271 268 275 283 283 273 259 248 243 241
184 184 187 187 187 189 191 190 192 198 203 203 205 214 230 252 282 291 282 277 278 283 293 304 309 311 312 314 314 311 314 321 321 315 307 304 300 294 290 284 278 274 270 265 262 262 262 263 264 263 262 264 266 265 265 266 269 271 272 271 270 271 272 271 272 274 282 297 298 286 279 273 268 274 277 274 273 279 285 287 281 270 255 248 245
183 184 185 185 188 190 190 190 194 200 203 203 206 215 227 258 291 292 282 279 280 284 293 303 307 308 308 309 308 306 308 310 312 311 309 306 302 299 295 288 281 278 274 271 268 264 260 258 259 261 261 262 263 264 263 263 263 264 265 268 269 269 269 270 273 274 275 280 286 283 277 272 265 268 272 270 274 279 281 284 285 279 265 251 243
185 184 183 185 187 187 188 193 197 201 202 202 208 218 236 273 292 291 285 282 283 286 293 302 305 304 305 304 301 300 301 301 304 310 311 306 300 297 294 289 286 281 275 271 268 265 259 256 256 259 261 260 260 261 261 261 261 260 262 266 268 269 272 273 272 271 268 268 268 266 266 267 265 269 272 268 270 276 278 280 283 279 269 254 240
184 183 183 185 185 184 188 197 200 199 200 206 218 231 254 276 282 283 282 282 284 287 293 299 301 297 296 295 294 293 293 294 298 304 308 305 298 294 293 291 288 284 278 274 270 265 262 259 258 260 261 261 261 261 261 261 260 259 264 269 268 266 268 267 265 265 264 260 253 248 255 262 261 264 269 267 269 274 276 277 277 274 265 248 236
181 183 184 183 183 185 191 197 200 198 201 215 233 244 259 269 272 277 279 279 282 287 291 295 295 291 288 291 293 292 288 289 294 298 301 299 294 292 292 291 288 285 282 280 276 271 267 265 264 263 262 261 260 261 262 261 260 260 263 265 263 259 259 258 258 258 258 256 248 240 247 254 255 258 263 266 270 271 271 272 272 268 260 240 226
182 181 181 180 182 188 193 196 198 200 210 232 249 255 260 268 272 276 277 276 279 286 290 291 290 288 287 292 297 295 287 287 291 294 295 293 290 290 291 289 287 285 283 282 281 278 275 272 270 267 265 263 261 261 260 259 259 257 256 256 255 253 252 252 253 256 256 253 246 237 242 248 248 251 253 259 268 263 261 266 267 259 252 239 223
178 175 176 180 185 189 193 195 198 203 221 246 257 259 266 275 276 275 276 277 280 285 288 290 291 289 286 289 294 295 292 292 294 295 294 290 286 286 287 287 285 283 282 282 281 280 278 276 273 271 269 267 264 262 259 258 256 252 250 250 248 247 249 250 250 252 254 252 243 232 236 244 244 243 242 244 256 253 247 255 257 247 238 230 216